Location: Houston
(29.7630°N, 95.3630°W)
Time: 07:56:11
(UTC-06:00)

ISS - All Passes

Search period start: 30 January 2015 00:00
Search period end: 09 February 2015 00:00
Orbit: 401 x 408 km, 51.6° (Epoch: 29 January)

Date Brightness Start Highest point End Pass type
(mag) Time Alt. Az. Time Alt. Az. Time Alt. Az.
30 Jan - 05:10:50 10° NW 05:14:07 67° NE 05:17:23 10° SE visible
30 Jan - 20:10:09 10° SSW 20:13:08 35° SE 20:16:10 10° ENE visible
30 Jan - 21:47:37 10° WNW 21:49:44 16° NW 21:51:47 10° N night (unlit)
31 Jan - 04:18:52 10° NNW 04:21:48 29° NE 04:24:45 10° ESE visible
31 Jan - 05:56:00 10° W 05:58:07 16° SW 06:00:09 10° SSW visible
31 Jan - 19:18:59 10° SSE 19:20:59 16° SE 19:23:04 10° E visible
31 Jan - 20:54:23 10° WSW 20:57:17 29° NW 21:00:13 10° NNE visible
01 Feb - 03:27:16 10° N 03:29:21 16° NE 03:31:30 10° ENE night (unlit)
01 Feb - 05:02:54 10° WNW 05:05:57 35° SW 05:08:59 10° SSE visible
01 Feb - 20:01:43 10° SW 20:04:57 67° NW 20:08:12 10° NE visible
02 Feb - 04:10:25 10° NW 04:13:43 89° SW 04:17:00 10° SE night (unlit)
02 Feb - 19:09:32 10° SSW 19:12:40 48° SE 19:15:50 10° NE visible
02 Feb - 20:47:46 10° WNW 20:49:23 13° NW 20:50:54 10° N visible
03 Feb - 03:18:16 10° NNW 03:21:22 38° NE 03:24:29 10° ESE night (unlit)
03 Feb - 04:56:13 10° W 04:57:36 12° SW 04:58:52 10° SSW night (unlit)
03 Feb - 18:17:59 10° S 18:20:26 20° SE 18:22:58 10° ENE daylight
03 Feb - 19:54:08 10° W 19:56:50 23° NW 19:59:30 10° NNE visible
04 Feb - 02:26:27 10° N 02:28:54 19° NE 02:31:23 10° E night (unlit)
04 Feb - 04:02:33 10° WNW 04:05:23 26° SW 04:08:10 10° S night (unlit)
04 Feb - 19:01:13 10° WSW 19:04:22 49° NW 19:07:33 10° NNE visible
05 Feb - 01:35:26 10° NNE 01:36:17 11° NNE 01:37:15 10° NE night (unlit)
05 Feb - 03:09:50 10° NW 03:13:06 65° SW 03:16:21 10° SE night (unlit)
05 Feb - 18:08:48 10° SW 18:12:00 67° SE 18:15:15 10° NE daylight
05 Feb - 19:48:06 10° NW 19:48:50 10° NNW 19:49:26 10° NNW visible
06 Feb - 02:17:31 10° NNW 02:20:43 50° NE 02:23:56 10° ESE night (unlit)
06 Feb - 17:16:55 10° S 17:19:41 27° SE 17:22:31 10° ENE daylight
06 Feb - 18:53:46 10° W 18:56:11 19° NW 18:58:34 10° N visible
07 Feb - 01:25:30 10° NNW 01:28:13 24° NE 01:30:58 10° E night (unlit)
07 Feb - 03:02:05 10° WNW 03:04:36 20° SW 03:07:04 10° S night (unlit)
07 Feb - 16:26:07 10° SSE 16:27:23 12° SE 16:28:48 10° E daylight
07 Feb - 18:00:35 10° WSW 18:03:37 37° NW 18:06:41 10° NNE daylight
08 Feb - 00:33:59 10° N 00:35:36 13° NE 00:37:17 10° ENE night (unlit)
08 Feb - 02:09:06 10° NW 02:12:16 47° SW 02:15:26 10° SSE night (unlit)
08 Feb - 17:07:56 10° SW 17:11:10 89° NW 17:14:26 10° NE daylight
